Location: Lachepaillet
(43.4918°N, 1.4874°W)
Time: 02:31:41
(UTC+00:00)

ACS3 Solar Sail - Pass Details

Date: 15 May 2026
Orbit: 877 x 953 km, 97.2° (Epoch: 8 June)

Event Time Altitude Azimuth Distance (km) Brightness Sun altitude
Rises 23:42:17 0° 25° (NNE) 3,489 5.6 -27.3°
Reaches altitude 10° 23:45:20 10° 41° (NE) 2,540 4.5 -27.3°
Maximum altitude 23:49:30 21° 90° (E) 1,870 3.2 -27.4°
Enters shadow 23:49:48 21° 94° (E) 1,873 3.2 -27.4°
